Location: St. Louis
(38.6270°N, 90.1994°W)
Time: 10:53:47
(UTC-06:00)

Altair - Pass Details

Date: 07 December 2021
Orbit: 1501 x 1683 km, 47.2° (Epoch: 25 January)

Event Time Altitude Azimuth Distance (km) Brightness Sun altitude
Rises 15:58:03 0° 261° (W) 4,793 11.4 6.0°
Reaches altitude 10° 16:01:17 10° 265° (W) 3,784 10.8 5.5°
Maximum altitude 16:10:41 59° 343° (NNW) 1,748 7.9 4.0°
Drops below altitude 10° 16:19:48 10° 63° (ENE) 3,671 8.9 2.5°
Sets 16:22:54 0° 67° (ENE) 4,643 9.3 1.9°
